Gastonia, NC

3:12 AM EST on January 29, 2020 (GMT -0500)
Gastonia Municipal

Weather History for KAKH - November, 2019

Change the Weather History Date:

Monday, November 11, 2019

  Actual Average (KCLT) Record (KCLT)
Temperature  
Mean Temperature 54 °F -  
Max Temperature 68 °F 62 °F 78 °F (1890)
Min Temperature 39 °F 40 °F 24 °F (1973)
Degree Days  
Heating Degree Days 12    
Growing Degree Days 4 (Base 50)    
Moisture  
Dew Point 40 °F    
Average Humidity 63    
Maximum Humidity 89    
Minimum Humidity 37    
Precipitation  
Precipitation 0.00 in - - ()
Sea Level Pressure  
Sea Level Pressure 30.08 in    
Wind  
Wind Speed 4 mph ()    
Max Wind Speed 10 mph    
Max Gust Speed 20 mph    
Visibility 9.0 miles    
Events      
Averages and records for this station are not official NWS values.
T = Trace of Precipitation, MM = Missing Value Source: Averaged Metar Reports

Daily Weather History Graph

Daily Weather History Graph

Search for Another Location

Airport or City:

Astronomy

Nov. 11, 2019 Rise Set
Actual Time 6:55 AM EST 5:21 PM EST
Civil Twilight 6:28 AM EST 5:48 PM EST
Nautical Twilight 5:58 AM EST 6:18 PM EST
Astronomical Twilight 5:28 AM EST 6:48 PM EST
Moon 5:12 PM EST (11/11) 5:49 AM EST (11/11)
Length of Visible Light 11h 19m
Length of Day
10h 26m
Waxing Gibbous, 99% of the Moon is Illuminated
Nov 11
Waxing Gibbous
Nov 12
Full
Nov 19
Last Quarter
Nov 26
New
Dec 4
First Quarter

Hourly Weather History & Observations

Time (EST) Temp. Windchill Dew Point Humidity Pressure Visibility Wind Dir Wind Speed Gust Speed Precip Events Conditions
12:54 AM 43.0 °F 41.3 °F 39.0 °F 86% 30.14 in 6.0 mi SW 3.5 mph - N/A   Clear
1:54 AM 42.1 °F 40.2 °F 37.9 °F 85% 30.13 in 8.0 mi SW 3.5 mph - N/A   Clear
2:54 AM 42.1 °F 40.2 °F 37.9 °F 85% 30.12 in 8.0 mi SW 3.5 mph - N/A   Clear
3:54 AM 41.0 °F - 37.0 °F 86% 30.11 in 8.0 mi Calm Calm - N/A   Clear
4:54 AM 41.0 °F - 37.0 °F 86% 30.12 in 7.0 mi Calm Calm - N/A   Clear
5:54 AM 39.9 °F - 36.0 °F 86% 30.12 in 6.0 mi Calm Calm - N/A   Clear
6:54 AM 41.0 °F 39.0 °F 37.0 °F 86% 30.14 in 6.0 mi SW 3.5 mph - N/A   Clear
7:54 AM 43.0 °F - 39.9 °F 89% 30.15 in 9.0 mi Calm Calm - N/A   Clear
9:54 AM 57.0 °F - 44.1 °F 62% 30.14 in 10.0 mi WSW 4.6 mph - N/A   Clear
10:54 AM 62.1 °F - 41.0 °F 46% 30.13 in 10.0 mi SSW 6.9 mph 18.4 mph N/A   Clear
11:54 AM 64.9 °F - 39.0 °F 39% 30.11 in 10.0 mi SW 9.2 mph - N/A   Clear
12:54 PM 66.9 °F - 39.9 °F 37% 30.07 in 10.0 mi SW 9.2 mph 18.4 mph N/A   Clear
1:54 PM 66.9 °F - 39.9 °F 37% 30.04 in 10.0 mi SSW 9.2 mph 19.6 mph N/A   Clear
2:54 PM 68.0 °F - 41.0 °F 37% 30.02 in 10.0 mi South 10.4 mph 16.1 mph N/A   Clear
3:54 PM 66.9 °F - 41.0 °F 39% 30.01 in 10.0 mi SSW 10.4 mph 17.3 mph N/A   Clear
5:54 PM 61.0 °F - 42.1 °F 50% 30.00 in 10.0 mi SSW 5.8 mph - N/A   Clear
6:54 PM 57.0 °F - 42.1 °F 57% 30.02 in 10.0 mi SSW 5.8 mph - N/A   Clear
7:54 PM 57.9 °F - 43.0 °F 58% 30.02 in 10.0 mi SSW 5.8 mph - N/A   Clear
8:54 PM 57.9 °F - 43.0 °F 58% 30.01 in 10.0 mi SSW 6.9 mph - N/A   Clear
9:54 PM 57.9 °F - 43.0 °F 58% 30.00 in 10.0 mi SSW 8.1 mph - N/A   Clear
10:54 PM 59.0 °F - 42.1 °F 53% 29.99 in 10.0 mi SW 8.1 mph - N/A   Clear